This is the latest recevied weather packets stored in our database for station/object N1ORT. If no packets are shown the sender has not sent any weather packets the latest 10 day(s).
| Time | Temp. | Humidity | Pressure | Rain* | Wind** | Luminosity | Snow |
|---|---|---|---|---|---|---|---|
| 1787925314 | 22.22° C | 94% | 1014.8 hPa | 0 mm | - | 252 W/m² | - |
| 1787925013 | 22.22° C | 95% | 1014.8 hPa | 0 mm | - | 280 W/m² | - |
| 1787924708 | 22.22° C | 96% | 1014.8 hPa | 0 mm | - | 183 W/m² | - |
| 1787924403 | 21.67° C | 96% | 1014.9 hPa | 0 mm | - | 142 W/m² | - |
| 1787924098 | 21.67° C | 97% | 1014.7 hPa | 0 mm | - | 129 W/m² | - |
| 1787923792 | 21.67° C | 97% | 1014.6 hPa | 0 mm | - | 116 W/m² | - |
| 1787923487 | 21.67° C | 97% | 1014.8 hPa | 0 mm | - | 106 W/m² | - |
| 1787923183 | 21.67° C | 98% | 1014.6 hPa | 0 mm | - | 123 W/m² | - |
| 1787922878 | 21.67° C | 98% | 1014.6 hPa | 0 mm | - | 83 W/m² | - |
| 1787922577 | 21.67° C | 99% | 1014.5 hPa | 0 mm | - | 108 W/m² | - |
| 1787922276 | 21.11° C | 99% | 1014.8 hPa | 0 mm | - | 89 W/m² | - |
| 1787921973 | 21.11° C | 99% | 1014.7 hPa | 0 mm | - | 106 W/m² | - |
| 1787921668 | 21.11° C | 99% | 1014.6 hPa | 0 mm | - | 131 W/m² | - |
| 1787921368 | 21.11° C | 99% | 1014.4 hPa | 0 mm | - | 173 W/m² | - |
| 1787921063 | 21.11° C | 99% | 1014.7 hPa | 0 mm | - | 107 W/m² | - |
| 1787920763 | 21.11° C | 99% | 1014.7 hPa | 0 mm | - | 145 W/m² | - |
| 1787920463 | 20.56° C | 99% | 1014.5 hPa | 0 mm | - | 125 W/m² | - |
| 1787920160 | 20.56° C | 99% | 1014.6 hPa | 0 mm | - | 104 W/m² | - |
| 1787919860 | 20.56° C | 99% | 1014.6 hPa | 0 mm | - | 67 W/m² | - |
| 1787919559 | 20.56° C | 99% | 1014.4 hPa | 0 mm | - | 56 W/m² | - |
| 1787919255 | 20.56° C | 99% | 1014.7 hPa | 0 mm | - | 43 W/m² | - |
| 1787918950 | 20.56° C | 99% | 1014.5 hPa | 0 mm | - | 63 W/m² | - |
| 1787918646 | 20° C | 99% | 1014.5 hPa | 0 mm | - | 54 W/m² | - |
| 1787918343 | 20° C | 99% | 1014.6 hPa | 0 mm | - | 55 W/m² | - |
| 1787918038 | 20° C | 99% | 1014.5 hPa | 0 mm | - | 50 W/m² | - |
* Rain latest hour (hover to see other rain measurements)
** Current wind speed in m/s (hover to see current wind gust speed)